User: anonymous   Login
Location: Hawks Ness
(60.2333°N, 1.1667°W)
Time: 03:03:29
(UTC+00:00)
Language:

NOSS 2-2 (D) - Orbit

View from above orbital plane
View from above orbital plane
View from above satellite
View from above satellite

Ground track
Ground track

The orbit data is extracted from the following two-line orbital elements,

1 21808U 91076D   19337.71501907 0.00000150  00000-0  32263-4 0    04
2 21808  63.3418 293.3383 0823070  35.8768 324.1232 13.41294967    07
Epoch (UTC): 03 December 2019 17:09:37
Eccentricity: 0.0823070
inclination: 63.3418°
perigee height: 488 km
apogee height: 1720 km
right ascension of ascending node: 293.3383°
argument of perigee: 35.8768°
revolutions per day: 13.41294967
mean anomaly at epoch: 324.1232°
orbit number at epoch: 0

The dashed part of the orbit path shows where the satellite is in the earth's shadow,  

DLR